Location: Pic du Midi - T1M
(42.9366°N, 0.1426°E)
Time: 03:14:05
(UTC+01:00)

Nauka - Visible Passes

Search period start: 27 September 2021 00:00
Search period end: 07 October 2021 00:00
Orbit: 417 x 423 km, 51.6° (Epoch: 26 September)

Date Brightness Start Highest point End Pass type
(mag) Time Alt. Az. Time Alt. Az. Time Alt. Az.
27 Sep ? 19:15:33 10° NW 19:17:59 18° N 19:20:25 10° NE visible
27 Sep ? 20:52:45 10° NW 20:54:48 23° N 20:54:48 23° N visible
28 Sep ? 20:05:35 10° NW 20:08:15 21° NNE 20:09:22 18° NE visible
28 Sep ? 21:42:11 10° NW 21:42:21 11° NW 21:42:21 11° NW visible
29 Sep ? 19:18:25 10° NW 19:20:55 19° N 19:23:25 10° NE visible
29 Sep ? 20:55:06 10° NW 20:57:00 28° NNW 20:57:00 28° NNW visible
30 Sep ? 20:08:06 10° NW 20:11:11 33° NNE 20:11:45 30° NE visible
01 Oct ? 19:21:10 10° NW 19:24:02 26° NNE 19:26:36 12° ENE visible
01 Oct ? 20:57:47 10° WNW 20:59:36 29° WNW 20:59:36 29° WNW visible
02 Oct ? 20:10:49 10° NW 20:14:11 71° NNE 20:14:35 62° E visible
03 Oct ? 19:23:58 10° NW 19:27:14 47° NNE 19:29:41 16° E visible
03 Oct ? 21:01:08 10° W 21:02:42 20° WSW 21:02:42 20° WSW visible
04 Oct ? 20:14:01 10° WNW 20:17:12 40° SW 20:17:58 34° S visible
05 Oct ? 19:27:08 10° WNW 19:30:28 68° SW 19:33:25 13° SE visible
06 Oct ? 20:18:19 10° W 20:20:13 14° SW 20:22:07 10° SSW visible
